Location: Neuvy Saint Sepulchre
(46.5953°N, 1.8122°E)
Time: 09:39:26
(UTC+02:00)

ISS - Pass Details

Date: 17 July 2021
Orbit: 419 x 421 km, 51.6° (Epoch: 04 August)

Event Time Altitude Azimuth Distance (km) Brightness Sun altitude
Rises 01:19:52 0° 285° (WNW) 2,370 0.4 -21.6°
Reaches altitude 10° 01:22:06 10° 295° (WNW) 1,505 -0.5 -21.7°
Maximum altitude 01:25:12 33° 2° (N) 731 -2.0 -21.8°
Drops below altitude 10° 01:28:18 10° 69° (ENE) 1,504 -0.8 -21.9°
Sets 01:30:32 0° 79° (E) 2,367 0.1 -21.9°
